TimeWEST,TemperatureF,Dew PointF,Humidity,Sea Level PressureIn,VisibilityMPH,Wind Direction,Wind SpeedMPH,Gust SpeedMPH,PrecipitationIn,Events,Conditions,WindDirDegrees,DateUTC
12:00 AM,68.0,57.2,68,30.06,6.2,NNE,9.2,-,N/A,,Partly Cloudy,20,2013-06-17 23:00:00
12:30 AM,66.2,57.2,73,30.06,6.2,NNE,8.1,-,N/A,,Partly Cloudy,30,2013-06-17 23:30:00
12:49 AM,67,58,67,30.04,6,NNE,10.4,,,,Partly Cloudy,20,2013-06-17 23:49:00
1:00 AM,66.2,59.0,78,30.06,6.2,NNE,10.4,-,N/A,,Scattered Clouds,20,2013-06-18 00:00:00
1:30 AM,66.2,57.2,73,30.06,6.2,NNE,10.4,-,N/A,,Scattered Clouds,20,2013-06-18 00:30:00
2:00 AM,64.4,57.2,77,30.06,6.2,NE,10.4,-,N/A,,Scattered Clouds,40,2013-06-18 01:00:00
2:30 AM,64.4,57.2,77,30.06,6.2,NE,6.9,-,N/A,,Scattered Clouds,50,2013-06-18 01:30:00
3:00 AM,64.4,57.2,77,30.06,6.2,NE,8.1,-,N/A,,Scattered Clouds,50,2013-06-18 02:00:00
3:30 AM,64.4,57.2,77,30.06,6.2,NNE,11.5,-,N/A,,Mostly Cloudy,30,2013-06-18 02:30:00
4:00 AM,64,56,68,30.02,6,NNE,11.5,,,,Mostly Cloudy,30,2013-06-18 03:00:00
4:00 AM,64.4,57.2,77,30.06,6.2,NNE,10.4,-,N/A,,Mostly Cloudy,30,2013-06-18 03:00:00
4:30 AM,64.4,55.4,73,30.06,6.2,NE,11.5,-,N/A,,Mostly Cloudy,50,2013-06-18 03:30:00
5:00 AM,64.4,55.4,73,30.06,6.2,NE,10.4,-,N/A,,Mostly Cloudy,50,2013-06-18 04:00:00
5:30 AM,62.6,55.4,77,30.06,6.2,NE,11.5,-,N/A,,Overcast,40,2013-06-18 04:30:00
6:00 AM,64.4,55.4,73,30.06,6.2,NE,10.4,-,N/A,,Overcast,50,2013-06-18 05:00:00
6:30 AM,64.4,55.4,73,30.06,6.2,NE,10.4,-,N/A,,Overcast,40,2013-06-18 05:30:00
6:45 AM,62,54,68,30.05,6,NNE,12.7,,,,Overcast,30,2013-06-18 05:45:00
7:00 AM,62.6,53.6,72,30.06,6.2,NNE,12.7,-,N/A,,Overcast,30,2013-06-18 06:00:00
7:30 AM,62.6,51.8,68,30.06,6.2,NE,11.5,-,N/A,,Overcast,40,2013-06-18 06:30:00
8:00 AM,60.8,51.8,72,30.06,6.2,NE,12.7,-,N/A,,Overcast,50,2013-06-18 07:00:00
8:30 AM,62.6,51.8,68,30.09,6.2,NE,11.5,-,N/A,,Overcast,40,2013-06-18 07:30:00
9:00 AM,62.6,51.8,68,30.09,6.2,NE,11.5,-,N/A,,Overcast,40,2013-06-18 08:00:00
9:30 AM,64.4,51.8,64,30.09,6.2,NNE,10.4,-,N/A,,Scattered Clouds,30,2013-06-18 08:30:00
10:00 AM,65,52,54,30.05,6,NNE,10.4,,,,Mostly Cloudy,30,2013-06-18 09:00:00
10:00 AM,64.4,51.8,64,30.09,6.2,NE,10.4,-,N/A,,Scattered Clouds,40,2013-06-18 09:00:00
10:30 AM,68.0,53.6,60,30.09,6.2,ENE,11.5,-,N/A,,Scattered Clouds,70,2013-06-18 09:30:00
11:00 AM,68.0,53.6,60,30.06,6.2,ENE,10.4,-,N/A,,Scattered Clouds,60,2013-06-18 10:00:00
11:30 AM,69.8,53.6,56,30.06,6.2,NE,8.1,-,N/A,,Scattered Clouds,40,2013-06-18 10:30:00
12:00 PM,71.6,51.8,50,30.06,6.2,East,6.9,-,N/A,,Scattered Clouds,80,2013-06-18 11:00:00
12:30 PM,73.4,51.8,47,30.06,6.2,NNE,8.1,-,N/A,,Scattered Clouds,20,2013-06-18 11:30:00
1:00 PM,75,53,36,30.00,6,NE,5.8,,,,Partly Cloudy,40,2013-06-18 12:00:00
1:00 PM,75.2,53.6,47,30.06,6.2,Variable,5.8,-,N/A,,Scattered Clouds,0,2013-06-18 12:00:00
1:30 PM,75.2,53.6,47,30.06,6.2,East,6.9,-,N/A,,Scattered Clouds,90,2013-06-18 12:30:00
2:00 PM,77.0,51.8,41,30.04,6.2,NNW,6.9,-,N/A,,Scattered Clouds,330,2013-06-18 13:00:00
2:30 PM,77.0,50.0,39,30.04,6.2,Variable,6.9,-,N/A,,Scattered Clouds,0,2013-06-18 13:30:00
3:00 PM,78.8,50.0,36,30.04,6.2,Variable,4.6,-,N/A,,Scattered Clouds,0,2013-06-18 14:00:00
3:30 PM,80.6,48.2,32,30.04,6.2,North,9.2,-,N/A,,Scattered Clouds,360,2013-06-18 14:30:00
4:00 PM,81,46,19,29.94,6,North,10.4,,,,Partly Cloudy,0,2013-06-18 15:00:00
4:00 PM,80.6,46.4,30,30.01,6.2,North,10.4,-,N/A,,Scattered Clouds,10,2013-06-18 15:00:00
4:30 PM,80.6,42.8,26,30.01,6.2,Variable,8.1,-,N/A,,Scattered Clouds,0,2013-06-18 15:30:00
5:00 PM,82.4,41.0,23,30.01,6.2,North,9.2,-,N/A,,Scattered Clouds,360,2013-06-18 16:00:00
5:30 PM,82.4,39.2,21,30.01,6.2,North,5.8,-,N/A,,Scattered Clouds,360,2013-06-18 16:30:00
6:00 PM,82.4,39.2,21,30.01,6.2,North,8.1,-,N/A,,Scattered Clouds,360,2013-06-18 17:00:00
6:30 PM,82.4,39.2,21,30.01,6.2,NE,10.4,-,N/A,,Scattered Clouds,50,2013-06-18 17:30:00
7:00 PM,82,40,14,29.91,6,NNE,10.4,,,,Partly Cloudy,30,2013-06-18 18:00:00
7:00 PM,82.4,39.2,21,30.01,6.2,NNE,9.2,-,N/A,,Scattered Clouds,30,2013-06-18 18:00:00
7:30 PM,82.4,41.0,23,30.01,6.2,NNE,10.4,-,N/A,,Unknown,20,2013-06-18 18:30:00
8:00 PM,80.6,42.8,26,30.01,6.2,NNE,13.8,-,N/A,,Scattered Clouds,30,2013-06-18 19:00:00
8:30 PM,78.8,42.8,28,30.01,6.2,NNE,13.8,-,N/A,,Scattered Clouds,30,2013-06-18 19:30:00
9:00 PM,75.2,44.6,34,30.01,6.2,North,13.8,-,N/A,,Partly Cloudy,10,2013-06-18 20:00:00
9:30 PM,73.4,46.4,38,30.04,6.2,NNE,16.1,-,N/A,,Partly Cloudy,20,2013-06-18 20:30:00
10:00 PM,70,46,31,30.00,6,NNE,17.3,,,,Scattered Clouds,20,2013-06-18 21:00:00
10:00 PM,69.8,46.4,43,30.04,6.2,NNE,15.0,-,N/A,,Partly Cloudy,20,2013-06-18 21:00:00
10:30 PM,68.0,46.4,46,30.06,-9999.0,NNE,15.0,-,N/A,,Clear,30,2013-06-18 21:30:00
11:00 PM,66.2,46.4,49,30.06,-9999.0,NNE,13.8,-,N/A,,Clear,30,2013-06-18 22:00:00
11:30 PM,66.2,48.2,52,30.06,6.2,NE,13.8,-,N/A,,Partly Cloudy,40,2013-06-18 22:30:00